DECAYED

CZ-4 DEB, 26270 (Decayed)

Orbit data source: Space-Track

CZ-4 DEB, 26270 was space debris in SSO originally from a launch on Thu, 14 Oct 1999 UTC launched from the Taiyaun Space Center, China (TSC). Debris objects in space refer to the collection of defunct objects orbiting the Earth. Examples of debris include non-operational satellites, rocket bodies, and fragments generated from explosions, collisions, or faulty payload assembly.

Not visible in the next 10 days
Identifier
26270, 1999-057FG
Orbit
Decayed
Country
Flag of CNCN / PRC
Related business
Manufacturer
Unknown
Mission
Decayed spacecraft
Bus & Motor
Unknown
Mass
Unknown
Launch date (UTC)
1999-10-14 (27 years ago)
Launch vehicle
Unknown
Launch site
Taiyaun Space Center, China (TSC)
Object type
Payload
Rocket body
Debris
Shape & HBR
Unknown shape, 0.1 m
Radar Cross Section
Medium (>0.1 m² and <1 m²)

Expand to show TLE details & history
Last TLE update: 1 year ago

TLE from 1 year ago
0 CZ-4 DEB
1 26270U 99057FG  25137.20415646  .03786783  26015-1  87075-2 0  9999
2 26270  98.0837 224.6400 0021918 274.8535  85.0240 16.01585835336796
Epoch: 2025-05-17T04:53Z
TLE epoch observation values (Epoch: 2025-05-17T04:53:59.118Z)
Latitude
0.00007°
Longitude
-84.00517°
Altitude
271.973 km
Speed
7.745 km/s
True Right ascension
14h 58m 33s
True Declination
0° 00' 00"
Sunlit
Object was in full shadow at epoch
Visualization orbit readout
Latitude
Unknown
Longitude
Unknown
Altitude
Unknown
Speed
Unknown
Apparent Right ascension
Unknown
Apparent Declination
Unknown
Sunlit
N/A
Visualization observer readout
Local Sidereal Time
05:36:53
Azimuth
Unknown
Elevation
Unknown
Doppler factor
Unknown
Orbital elements
Apogee altitude
281.481 km
Perigee altitude
252.351 km
Semi-major axis
6,645.053 km
Eccentricity
0.00219
Inclination
98.0837°
RAAN
224.64°
Arg. of periapsis
274.8535°
True anomaly
85.27427°
Mean anomaly
85.024°
Eccentric anomaly
85.14913°
Mean motion
4.00678 °/min
Orbital period
89.85 mins
BSTAR
0.0087075
Loading maneuver chart data...
Computing Atmospheric mass density...

Documentation

Showing up to 5 results
|